RPB1422 SKBO-SKCG

Flight info

Callsign RPB1422
Flight time 1h 1m
Altitude 36000
Route OSUSU4R GIKPU UQ120 DIBAM UW10 UGREB UGREB3B
Aircraft B738/M-SDE2E3FGHIRWXY/LB1

Departure

Time 2026-04-25 04:57
Airport El Dorado International Airport (SKBO)

Arrival

Time 2026-04-25 05:59
Airport Rafael Nuñez International Airport (SKCG)
Time Latitude Longitude Altitude Speed Heading
2026-04-25 04:08 4.69786 -74.14533 8369 ft 0 kts 36°
2026-04-25 04:26 4.69777 -74.14540 8370 ft 2 kts 31°
2026-04-25 04:26 4.69763 -74.14548 8369 ft 2 kts 22°
2026-04-25 04:27 4.69747 -74.14553 8369 ft 2 kts
2026-04-25 04:27 4.69731 -74.14550 8369 ft 2 kts 327°
2026-04-25 04:27 4.69719 -74.14540 8369 ft 1 kts 308°
2026-04-25 04:27 4.69717 -74.14537 8369 ft 0 kts 307°
2026-04-25 04:36 4.69718 -74.14539 8369 ft 2 kts 307°
2026-04-25 04:36 4.69731 -74.14555 8369 ft 3 kts 307°
2026-04-25 04:36 4.69744 -74.14572 8369 ft 3 kts 307°
2026-04-25 04:37 4.69751 -74.14583 8369 ft 0 kts 307°
2026-04-25 04:38 4.69763 -74.14598 8369 ft 4 kts 307°
2026-04-25 04:38 4.69772 -74.14610 8369 ft 5 kts 310°
2026-04-25 04:38 4.69793 -74.14638 8369 ft 4 kts 307°
2026-04-25 04:38 4.69807 -74.14655 8369 ft 0 kts 307°
2026-04-25 04:39 4.69832 -74.14688 8369 ft 11 kts 307°
2026-04-25 04:40 4.69876 -74.14747 8369 ft 10 kts 307°
2026-04-25 04:40 4.69947 -74.14770 8369 ft 14 kts 24°
2026-04-25 04:40 4.70028 -74.14713 8369 ft 14 kts 38°
2026-04-25 04:40 4.70103 -74.14657 8369 ft 13 kts 36°
2026-04-25 04:41 4.70175 -74.14602 8369 ft 13 kts 37°
2026-04-25 04:41 4.70245 -74.14549 8369 ft 12 kts 37°
2026-04-25 04:41 4.70313 -74.14498 8369 ft 12 kts 37°
2026-04-25 04:41 4.70380 -74.14447 8369 ft 12 kts 37°
2026-04-25 04:42 4.70443 -74.14396 8369 ft 12 kts 51°
2026-04-25 04:42 4.70432 -74.14325 8369 ft 11 kts 129°
2026-04-25 04:42 4.70382 -74.14266 8369 ft 11 kts 131°
2026-04-25 04:42 4.70335 -74.14208 8369 ft 11 kts 126°
2026-04-25 04:43 4.70293 -74.14149 8369 ft 10 kts 126°
2026-04-25 04:43 4.70249 -74.14094 8369 ft 10 kts 127°
2026-04-25 04:43 4.70207 -74.14039 8369 ft 10 kts 127°
2026-04-25 04:43 4.70166 -74.13986 8368 ft 9 kts 127°
2026-04-25 04:44 4.70127 -74.13934 8368 ft 9 kts 126°
2026-04-25 04:44 4.70083 -74.13876 8369 ft 11 kts 127°
2026-04-25 04:44 4.70036 -74.13813 8369 ft 14 kts 127°
2026-04-25 04:44 4.69967 -74.13722 8369 ft 17 kts 127°
2026-04-25 04:45 4.69896 -74.13628 8369 ft 16 kts 127°
2026-04-25 04:45 4.69829 -74.13539 8369 ft 16 kts 127°
2026-04-25 04:45 4.69763 -74.13452 8369 ft 16 kts 127°
2026-04-25 04:45 4.69694 -74.13359 8369 ft 19 kts 127°
2026-04-25 04:46 4.69600 -74.13237 8369 ft 23 kts 127°
2026-04-25 04:46 4.69505 -74.13112 8368 ft 22 kts 127°
2026-04-25 04:46 4.69413 -74.12990 8368 ft 22 kts 127°
2026-04-25 04:46 4.69325 -74.12872 8368 ft 21 kts 127°
2026-04-25 04:47 4.69238 -74.12757 8369 ft 20 kts 126°
2026-04-25 04:47 4.69156 -74.12646 8369 ft 20 kts 120°
2026-04-25 04:47 4.69172 -74.12540 8368 ft 0 kts 28°
2026-04-25 04:47 4.69175 -74.12539 8368 ft 0 kts 25°
2026-04-25 04:55 4.69222 -74.12522 8368 ft 14 kts 18°
2026-04-25 04:55 4.69312 -74.12530 8368 ft 14 kts 308°
2026-04-25 04:55 4.69318 -74.12538 8368 ft 0 kts 306°
2026-04-25 04:56 4.69324 -74.12547 8368 ft 16 kts 306°
2026-04-25 04:57 4.69545 -74.12841 8366 ft 88 kts 307°
2026-04-25 04:57 4.70035 -74.13488 8368 ft 147 kts 307°
2026-04-25 04:57 4.70739 -74.14459 8413 ft 196 kts 307°
2026-04-25 04:57 4.71635 -74.15586 8993 ft 210 kts 308°
2026-04-25 04:58 4.72544 -74.16767 9790 ft 211 kts 307°
2026-04-25 04:58 4.73470 -74.17909 10478 ft 218 kts 319°
2026-04-25 04:58 4.74911 -74.18523 10615 ft 240 kts 358°
2026-04-25 04:58 4.76600 -74.18146 10807 ft 261 kts 22°
2026-04-25 04:59 4.78282 -74.17332 11157 ft 274 kts 27°
2026-04-25 04:59 4.79990 -74.16444 11677 ft 277 kts 26°
2026-04-25 04:59 4.81721 -74.15572 12227 ft 280 kts 25°
2026-04-25 04:59 4.83494 -74.14708 12802 ft 286 kts 25°
2026-04-25 05:00 4.85296 -74.13844 13597 ft 287 kts 25°
2026-04-25 05:00 4.87104 -74.12977 14328 ft 289 kts 27°
2026-04-25 05:00 4.88751 -74.11771 14766 ft 303 kts 43°
2026-04-25 05:00 4.90309 -74.10225 14911 ft 327 kts 45°
2026-04-25 05:01 4.91927 -74.08561 15062 ft 348 kts 45°
2026-04-25 05:01 4.93663 -74.06784 15298 ft 364 kts 45°
2026-04-25 05:01 4.95460 -74.04970 15796 ft 370 kts 44°
2026-04-25 05:01 4.97299 -74.03135 16413 ft 373 kts 44°
2026-04-25 05:02 4.99154 -74.01296 16908 ft 376 kts 44°
2026-04-25 05:02 5.01036 -73.99494 16948 ft 372 kts 37°
2026-04-25 05:02 5.03293 -73.98240 16975 ft 373 kts 17°
2026-04-25 05:02 5.05809 -73.97550 16973 ft 376 kts 13°
2026-04-25 05:03 5.08347 -73.96949 16955 ft 374 kts 12°
2026-04-25 05:03 5.10878 -73.96360 16948 ft 372 kts 12°
2026-04-25 05:03 5.13402 -73.95761 16955 ft 371 kts 13°
2026-04-25 05:03 5.15878 -73.95160 16938 ft 371 kts 13°
2026-04-25 05:04 5.18391 -73.94540 16923 ft 371 kts 13°
2026-04-25 05:04 5.20901 -73.93916 16937 ft 371 kts 13°
2026-04-25 05:04 5.23407 -73.93291 16945 ft 371 kts 13°
2026-04-25 05:04 5.25920 -73.92665 16933 ft 373 kts 13°
2026-04-25 05:05 5.28468 -73.92030 17268 ft 378 kts 13°
2026-04-25 05:05 5.31033 -73.91392 17900 ft 380 kts 13°
2026-04-25 05:05 5.33603 -73.90752 18520 ft 382 kts 13°
2026-04-25 05:05 5.36169 -73.90113 19005 ft 385 kts 13°
2026-04-25 05:06 5.38786 -73.89461 19496 ft 388 kts 13°
2026-04-25 05:06 5.41420 -73.88804 19994 ft 391 kts 13°
2026-04-25 05:06 5.44074 -73.88143 20480 ft 394 kts 13°
2026-04-25 05:06 5.46742 -73.87478 20955 ft 397 kts 13°
2026-04-25 05:07 5.49436 -73.86806 21260 ft 398 kts 13°
2026-04-25 05:07 5.52123 -73.86136 21277 ft 398 kts 13°
2026-04-25 05:07 5.54837 -73.85481 21336 ft 404 kts 12°
2026-04-25 05:07 5.57603 -73.84892 21775 ft 407 kts 10°
2026-04-25 05:08 5.60374 -73.84334 22367 ft 406 kts 10°
2026-04-25 05:08 5.63154 -73.83780 22855 ft 408 kts 10°
2026-04-25 05:08 5.65951 -73.83219 23257 ft 412 kts 10°
2026-04-25 05:08 5.68734 -73.82654 23656 ft 415 kts 10°
2026-04-25 05:09 5.71573 -73.82073 24035 ft 418 kts 10°
2026-04-25 05:09 5.74431 -73.81484 24381 ft 420 kts 11°
2026-04-25 05:09 5.77306 -73.80890 24732 ft 423 kts 11°
2026-04-25 05:09 5.80199 -73.80292 25067 ft 426 kts 11°
2026-04-25 05:10 5.83112 -73.79690 25402 ft 428 kts 11°
2026-04-25 05:10 5.86047 -73.79083 25732 ft 431 kts 11°
2026-04-25 05:10 5.88992 -73.78474 26063 ft 433 kts 11°
2026-04-25 05:10 5.91964 -73.77859 26385 ft 436 kts 11°
2026-04-25 05:11 5.94942 -73.77243 26709 ft 438 kts 11°
2026-04-25 05:11 5.97904 -73.76630 27027 ft 441 kts 12°
2026-04-25 05:11 6.00914 -73.76008 27326 ft 443 kts 12°
2026-04-25 05:12 6.06997 -73.74754 27949 ft 448 kts 12°
2026-04-25 05:12 6.10070 -73.74123 28238 ft 451 kts 12°
2026-04-25 05:12 6.13155 -73.73490 28519 ft 453 kts 12°
2026-04-25 05:12 6.16262 -73.72851 28806 ft 455 kts 12°
2026-04-25 05:13 6.19374 -73.72212 29086 ft 458 kts 12°
2026-04-25 05:13 6.22467 -73.71576 29352 ft 460 kts 12°
2026-04-25 05:13 6.25610 -73.70929 29620 ft 462 kts 12°
2026-04-25 05:13 6.28766 -73.70280 29876 ft 465 kts 12°
2026-04-25 05:14 6.31946 -73.69626 30132 ft 467 kts 12°
2026-04-25 05:14 6.35144 -73.68967 30350 ft 469 kts 12°
2026-04-25 05:14 6.38351 -73.68307 30575 ft 471 kts 12°
2026-04-25 05:15 6.44793 -73.66981 31036 ft 474 kts 12°
2026-04-25 05:15 6.48027 -73.66316 31251 ft 475 kts 12°
2026-04-25 05:15 6.51237 -73.65656 31479 ft 477 kts 12°
2026-04-25 05:15 6.54481 -73.64991 31771 ft 476 kts 12°
2026-04-25 05:16 6.57722 -73.64327 32125 ft 474 kts 13°
2026-04-25 05:16 6.60952 -73.63666 32467 ft 473 kts 13°
2026-04-25 05:16 6.64174 -73.63005 32754 ft 473 kts 13°
2026-04-25 05:16 6.67405 -73.62342 33036 ft 473 kts 13°
2026-04-25 05:17 6.70636 -73.61679 33341 ft 472 kts 13°
2026-04-25 05:17 6.73846 -73.61020 33656 ft 471 kts 13°
2026-04-25 05:17 6.77068 -73.60359 33945 ft 471 kts 13°
2026-04-25 05:17 6.80277 -73.59700 34184 ft 471 kts 13°
2026-04-25 05:18 6.83456 -73.59047 34407 ft 471 kts 13°
2026-04-25 05:18 6.86664 -73.58388 34657 ft 470 kts 13°
2026-04-25 05:18 6.89869 -73.57730 34924 ft 470 kts 13°
2026-04-25 05:18 6.93075 -73.57071 35154 ft 469 kts 13°
2026-04-25 05:19 6.96281 -73.56427 35390 ft 469 kts 11°
2026-04-25 05:19 6.99533 -73.56090 35615 ft 471 kts
2026-04-25 05:19 7.02776 -73.56182 35861 ft 471 kts 358°
2026-04-25 05:20 7.08191 -73.56865 35963 ft 476 kts 345°
2026-04-25 05:20 7.12285 -73.58439 35957 ft 475 kts 332°
2026-04-25 05:20 7.14224 -73.59553 35973 ft 474 kts 329°
2026-04-25 05:21 7.20755 -73.63558 35960 ft 471 kts 328°
2026-04-25 05:21 7.25392 -73.66407 35960 ft 469 kts 329°
2026-04-25 05:22 7.30993 -73.69804 35943 ft 470 kts 329°
2026-04-25 05:22 7.36626 -73.73195 35970 ft 479 kts 329°
2026-04-25 05:23 7.42395 -73.76661 35966 ft 485 kts 329°
2026-04-25 05:23 7.48174 -73.80136 35961 ft 487 kts 329°
2026-04-25 05:24 7.54001 -73.83642 35962 ft 488 kts 329°
2026-04-25 05:24 7.59841 -73.87158 35958 ft 487 kts 329°
2026-04-25 05:25 7.65629 -73.90644 35963 ft 486 kts 329°
2026-04-25 05:25 7.71443 -73.94146 35967 ft 485 kts 329°
2026-04-25 05:26 7.77242 -73.97640 35970 ft 483 kts 329°
2026-04-25 05:26 7.82976 -74.01097 35978 ft 482 kts 329°
2026-04-25 05:27 7.88738 -74.04571 35981 ft 481 kts 329°
2026-04-25 05:27 7.94476 -74.08032 35980 ft 480 kts 329°
2026-04-25 05:28 8.00206 -74.11489 35979 ft 479 kts 328°
2026-04-25 05:28 8.05929 -74.14944 35987 ft 479 kts 328°
2026-04-25 05:29 8.11640 -74.18392 35985 ft 478 kts 328°
2026-04-25 05:29 8.17352 -74.21842 35976 ft 478 kts 328°
2026-04-25 05:30 8.23033 -74.25274 35970 ft 478 kts 328°
2026-04-25 05:30 8.25898 -74.27006 35777 ft 482 kts 328°
2026-04-25 05:30 8.28801 -74.28761 35314 ft 483 kts 328°
2026-04-25 05:30 8.31678 -74.30500 34918 ft 478 kts 328°
2026-04-25 05:31 8.34488 -74.32198 34465 ft 476 kts 328°
2026-04-25 05:31 8.37324 -74.33913 34016 ft 473 kts 328°
2026-04-25 05:31 8.40140 -74.35616 33536 ft 471 kts 328°
2026-04-25 05:31 8.42945 -74.37313 33081 ft 467 kts 328°
2026-04-25 05:32 8.45729 -74.38997 32643 ft 464 kts 328°
2026-04-25 05:32 8.48484 -74.40665 32220 ft 460 kts 328°
2026-04-25 05:32 8.51223 -74.42322 31798 ft 456 kts 328°
2026-04-25 05:32 8.53934 -74.43963 31380 ft 453 kts 328°
2026-04-25 05:33 8.56596 -74.45575 30972 ft 450 kts 328°
2026-04-25 05:33 8.59270 -74.47195 30565 ft 446 kts 328°
2026-04-25 05:33 8.61932 -74.48807 30157 ft 443 kts 328°
2026-04-25 05:33 8.64568 -74.50404 29699 ft 440 kts 328°
2026-04-25 05:34 8.67182 -74.51988 29238 ft 436 kts 328°
2026-04-25 05:34 8.69776 -74.53559 28796 ft 432 kts 328°
2026-04-25 05:34 8.72342 -74.55115 28379 ft 428 kts 328°
2026-04-25 05:34 8.74881 -74.56654 27957 ft 424 kts 328°
2026-04-25 05:35 8.77402 -74.58182 27543 ft 420 kts 328°
2026-04-25 05:35 8.79904 -74.59699 27137 ft 416 kts 328°
2026-04-25 05:35 8.82341 -74.61178 26741 ft 412 kts 328°
2026-04-25 05:35 8.84789 -74.62662 26347 ft 408 kts 328°
2026-04-25 05:36 8.87215 -74.64134 25956 ft 405 kts 328°
2026-04-25 05:36 8.89619 -74.65593 25557 ft 402 kts 328°
2026-04-25 05:36 8.92006 -74.67042 25171 ft 398 kts 328°
2026-04-25 05:36 8.94375 -74.68479 24790 ft 395 kts 328°
2026-04-25 05:37 8.96728 -74.69908 24407 ft 393 kts 328°
2026-04-25 05:37 8.99062 -74.71325 24022 ft 390 kts 328°
2026-04-25 05:37 9.01382 -74.72734 23627 ft 387 kts 328°
2026-04-25 05:37 9.03683 -74.74131 23203 ft 385 kts 328°
2026-04-25 05:38 9.05972 -74.75522 22779 ft 382 kts 328°
2026-04-25 05:38 9.08246 -74.76903 22376 ft 378 kts 328°
2026-04-25 05:38 9.10487 -74.78264 22002 ft 374 kts 328°
2026-04-25 05:38 9.12708 -74.79614 21622 ft 370 kts 328°
2026-04-25 05:39 9.14907 -74.80950 21249 ft 367 kts 328°
2026-04-25 05:39 9.17071 -74.82265 20887 ft 364 kts 328°
2026-04-25 05:39 9.19234 -74.83580 20519 ft 361 kts 328°
2026-04-25 05:39 9.21378 -74.84884 20165 ft 358 kts 328°
2026-04-25 05:40 9.23506 -74.86178 19805 ft 356 kts 328°
2026-04-25 05:40 9.25628 -74.87468 19452 ft 353 kts 328°
2026-04-25 05:40 9.27730 -74.88747 19098 ft 351 kts 328°
2026-04-25 05:40 9.29819 -74.90018 18746 ft 349 kts 328°
2026-04-25 05:41 9.31899 -74.91284 18385 ft 347 kts 328°
2026-04-25 05:41 9.33941 -74.92526 18019 ft 346 kts 328°
2026-04-25 05:41 9.35994 -74.93776 17622 ft 343 kts 328°
2026-04-25 05:41 9.38032 -74.95017 17258 ft 341 kts 328°
2026-04-25 05:42 9.40061 -74.96252 16900 ft 338 kts 328°
2026-04-25 05:42 9.42072 -74.97476 16551 ft 336 kts 328°
2026-04-25 05:42 9.44068 -74.98692 16206 ft 333 kts 328°
2026-04-25 05:42 9.46046 -74.99896 15866 ft 331 kts 328°
2026-04-25 05:43 9.48014 -75.01095 15534 ft 328 kts 328°
2026-04-25 05:43 9.49941 -75.02269 15204 ft 326 kts 328°
2026-04-25 05:43 9.51879 -75.03450 14872 ft 325 kts 328°
2026-04-25 05:43 9.53810 -75.04627 14539 ft 323 kts 328°
2026-04-25 05:44 9.55731 -75.05798 14205 ft 321 kts 328°
2026-04-25 05:44 9.57642 -75.06963 13871 ft 320 kts 327°
2026-04-25 05:44 9.59546 -75.08124 13520 ft 319 kts 327°
2026-04-25 05:44 9.61450 -75.09285 13161 ft 317 kts 327°
2026-04-25 05:45 9.63333 -75.10433 12819 ft 315 kts 328°
2026-04-25 05:45 9.65206 -75.11576 12488 ft 313 kts 328°
2026-04-25 05:45 9.67067 -75.12712 12162 ft 311 kts 327°
2026-04-25 05:45 9.68915 -75.13839 11834 ft 309 kts 328°
2026-04-25 05:46 9.70728 -75.14945 11518 ft 307 kts 327°
2026-04-25 05:46 9.72554 -75.16059 11198 ft 305 kts 327°
2026-04-25 05:46 9.74364 -75.17178 10907 ft 304 kts 326°
2026-04-25 05:46 9.76131 -75.18347 10675 ft 303 kts 325°
2026-04-25 05:47 9.77889 -75.19535 10447 ft 304 kts 325°
2026-04-25 05:47 9.79633 -75.20714 10237 ft 299 kts 325°
2026-04-25 05:47 9.81341 -75.21865 10124 ft 290 kts 325°
2026-04-25 05:47 9.82998 -75.22979 10007 ft 282 kts 325°
2026-04-25 05:48 9.84619 -75.24067 9807 ft 278 kts 325°
2026-04-25 05:48 9.86241 -75.25154 9507 ft 278 kts 325°
2026-04-25 05:48 9.87848 -75.26231 9217 ft 276 kts 325°
2026-04-25 05:48 9.89456 -75.27308 8929 ft 275 kts 325°
2026-04-25 05:49 9.91029 -75.28360 8652 ft 274 kts 325°
2026-04-25 05:49 9.92620 -75.29425 8371 ft 273 kts 325°
2026-04-25 05:49 9.94205 -75.30485 8089 ft 272 kts 325°
2026-04-25 05:49 9.95783 -75.31540 7807 ft 271 kts 325°
2026-04-25 05:50 9.97354 -75.32592 7524 ft 270 kts 325°
2026-04-25 05:50 9.98918 -75.33640 7244 ft 269 kts 325°
2026-04-25 05:50 10.00480 -75.34683 6974 ft 268 kts 325°
2026-04-25 05:50 10.02044 -75.35728 6701 ft 268 kts 325°
2026-04-25 05:51 10.03574 -75.36752 6416 ft 267 kts 325°
2026-04-25 05:51 10.05125 -75.37791 6125 ft 267 kts 325°
2026-04-25 05:51 10.06671 -75.38826 5832 ft 266 kts 325°
2026-04-25 05:51 10.08216 -75.39861 5570 ft 265 kts 325°
2026-04-25 05:52 10.09747 -75.40886 5303 ft 263 kts 325°
2026-04-25 05:52 10.11210 -75.41866 5047 ft 262 kts 325°
2026-04-25 05:52 10.12785 -75.42921 4774 ft 261 kts 325°
2026-04-25 05:52 10.14302 -75.43938 4486 ft 260 kts 325°
2026-04-25 05:53 10.15811 -75.44949 4203 ft 258 kts 325°
2026-04-25 05:53 10.17293 -75.45942 3916 ft 251 kts 325°
2026-04-25 05:53 10.18715 -75.46895 3675 ft 243 kts 325°
2026-04-25 05:53 10.20086 -75.47814 3562 ft 230 kts 325°
2026-04-25 05:54 10.21385 -75.48685 3451 ft 218 kts 325°
2026-04-25 05:54 10.22637 -75.49524 3383 ft 213 kts 325°
2026-04-25 05:54 10.25090 -75.51168 3208 ft 211 kts 325°
2026-04-25 05:55 10.26390 -75.51876 3031 ft 215 kts 347°
2026-04-25 05:55 10.27887 -75.51917 2971 ft 217 kts
2026-04-25 05:55 10.29401 -75.51874 2696 ft 215 kts
2026-04-25 05:55 10.30892 -75.51823 2413 ft 213 kts
2026-04-25 05:56 10.32348 -75.51766 2123 ft 204 kts
2026-04-25 05:56 10.33708 -75.51711 1874 ft 190 kts
2026-04-25 05:56 10.34986 -75.51660 1644 ft 177 kts
2026-04-25 05:56 10.36175 -75.51613 1411 ft 166 kts
2026-04-25 05:57 10.37278 -75.51569 1255 ft 152 kts
2026-04-25 05:57 10.38313 -75.51528 1001 ft 149 kts
2026-04-25 05:57 10.39333 -75.51487 815 ft 146 kts
2026-04-25 05:57 10.40348 -75.51447 626 ft 146 kts
2026-04-25 05:58 10.41364 -75.51407 433 ft 143 kts
2026-04-25 05:58 10.42364 -75.51373 223 ft 142 kts
2026-04-25 05:58 10.43310 -75.51332 70 ft 131 kts
2026-04-25 05:58 10.44128 -75.51297 50 ft 101 kts
2026-04-25 05:59 10.44677 -75.51273 47 ft 57 kts
2026-04-25 05:59 10.44951 -75.51261 50 ft 31 kts
2026-04-25 05:59 10.45139 -75.51254 50 ft 20 kts 358°
2026-04-25 05:59 10.45234 -75.51285 50 ft 9 kts
2026-04-25 06:00 10.45241 -75.51255 50 ft 4 kts 135°
2026-04-25 06:00 10.45209 -75.51251 50 ft 5 kts 180°
2026-04-25 06:00 10.45146 -75.51252 50 ft 15 kts 182°
2026-04-25 06:00 10.45010 -75.51257 49 ft 24 kts 182°
2026-04-25 06:01 10.44818 -75.51265 49 ft 29 kts 181°
2026-04-25 06:01 10.44680 -75.51271 50 ft 0 kts 184°
2026-04-25 06:01 10.44656 -75.51289 50 ft 19 kts 236°
2026-04-25 06:01 10.44593 -75.51469 50 ft 26 kts 208°
2026-04-25 06:02 10.44491 -75.51512 50 ft 6 kts 239°
2026-04-25 06:02 10.44492 -75.51556 50 ft 0 kts 272°